{"data":{"norad_id":55663,"intl_designator":"2023-021AM","name":"STARLINK-5473","alt_names":[],"object_type":"PAYLOAD","status":"ACTIVE","operator":null,"country":"US","launch_date":"2023-02-17","launch_site_code":"AFWTR","launch_vehicle":null,"mission":null,"orbit_class":"UNKNOWN","rcs_meters":null,"size_class":null,"mass_kg":null,"dimensions":null,"purposes":["comms"],"wikipedia_slug":null,"has_3d_model":false,"image_url":null,"decayed_at":null,"tle_current":{"epoch":"2026-09-20T22:00:03.000096Z","epoch_age_seconds":67082,"freshness":"FRESH","line1":"1 55663U 23021AM  26263.91670139  .00009724  00000+0  69632-3 0  9998","line2":"2 55663  70.0009  32.1596 0005304 259.2339 303.0167 15.04642912  5711","mean_motion":15.04642912,"eccentricity":0.0005304,"inclination_deg":70.0009,"raan_deg":32.1596,"arg_perigee_deg":259.2339,"mean_anomaly_deg":303.0167,"bstar":0.00069632,"rev_number":571,"period_min":95.703770543532,"perigee_km":548.92595555235,"apogee_km":556.27808350427,"semimajor_km":6930.7390195283,"source":"CELESTRAK","updated_at":"2026-09-21T09:00:33.308420Z"}}}